Location: College Rock
(37.2713°N, 119.1740°W)
Time: 13:20:49
(UTC+00:00)

Cosmos 1484 Rocket - Pass Details

Date: 29 October 2020
Orbit: 504 x 560 km, 97.4° (Epoch: 01 December)

Event Time Altitude Azimuth Distance (km) Brightness Sun altitude
Rises 13:15:41 0° 357° (N) 2,679 6.2 -13.1°
Reaches altitude 10° 13:18:05 10° 344° (NNW) 1,774 5.2 -12.6°
Maximum altitude 13:21:11 24° 290° (WNW) 1,113 3.8 -12.0°
Drops below altitude 10° 13:24:14 10° 235° (SW) 1,739 4.9 -11.4°
Sets 13:26:34 0° 221° (SW) 2,612 6.0 -11.0°
